ZL1UCH Weather Reports


time (UTC)temp
F
wind
direction
speed
knots
gust
knots
rain 1hr
in
rain 24hr
in
rain mn
in
humidity
%
barometer
mb
20260506034542 68 61 5.2 12.2 0.00 0.01 0.01 85 1026.0
20260506033039 68 154 3.5 11.3 0.00 0.01 0.01 84 1026.1
20260506031553 69 70 6.1 12.2 0.00 0.01 0.01 83 1026.1
20260506030046 68 88 7.0 12.2 0.00 0.01 0.01 84 1026.1
20260506024544 68 4 6.1 13.9 0.00 0.01 0.01 83 1026.1
20260506023043 68 313 4.3 11.3 0.00 0.01 0.01 83 1026.1
20260506021541 68 273 5.2 13.9 0.00 0.01 0.01 83 1026.0
20260506020038 68 44 5.2 13.9 0.00 0.01 0.01 84 1026.1
20260506014536 67 153 4.3 13.0 0.00 0.01 0.01 87 1026.1
20260506013046 68 86 4.3 12.2 0.00 0.01 0.01 87 1026.2
20260506011541 68 51 3.5 9.6 0.00 0.01 0.01 85 1026.3
20260506010040 68 71 7.0 12.2 0.00 0.01 0.01 84 1026.4
20260506004604 69 166 4.3 10.4 0.00 0.01 0.01 83 1026.4
20260506003035 68 331 5.2 13.0 0.00 0.01 0.01 84 1026.7
20260506001541 69 63 4.3 13.9 0.00 0.01 0.01 83 1026.9
20260506000044 68 77 8.7 13.9 0.00 0.01 0.01 83 1026.9
20260505234604 68 124 5.2 13.9 0.00 0.01 0.01 84 1027.0
20260505233041 68 71 7.8 13.0 0.00 0.01 0.01 84 1026.9
20260505231536 68 78 7.0 15.6 0.00 0.01 0.01 84 1027.1
20260505230042 68 79 7.0 14.8 0.00 0.01 0.01 83 1027.2
20260505224536 68 113 7.0 13.9 0.00 0.01 0.01 83 1027.1
20260505223052 68 84 7.0 13.9 0.00 0.01 0.01 85 1027.2
20260505221616 67 65 7.0 13.0 0.00 0.01 0.01 86 1027.2
20260505220057 67 359 3.5 13.0 0.00 0.01 0.01 86 1027.3
20260505214552 67 80 6.1 12.2 0.00 0.01 0.01 86 1027.5
20260505213043 67 70 6.1 11.3 0.00 0.01 0.01 87 1027.6
20260505211536 67 36 3.5 8.7 0.00 0.01 0.01 86 1027.9
20260505210043 67 73 3.5 7.8 0.01 0.01 0.01 87 1028.0
20260505204535 66 264 2.6 7.8 0.01 0.01 0.01 89 1027.8
20260505203039 66 340 3.5 9.6 0.01 0.01 0.01 90 1027.7
20260505201541 65 49 3.5 7.8 0.00 0.00 0.00 89 1027.5
20260505200058 65 82 2.6 7.8 0.00 0.00 0.00 88 1027.5
20260505194543 65 338 3.5 5.2 0.00 0.00 0.00 90 1027.3
20260505193042 65 53 2.6 7.0 0.00 0.00 0.00 90 1027.2
20260505191541 65 56 2.6 5.2 0.00 0.00 0.00 90 1027.2
20260505190047 65 5 2.6 6.1 0.00 0.00 0.00 91 1027.1
20260505184539 65 51 3.5 8.7 0.00 0.00 0.00 91 1027.0
20260505183048 65 31 4.3 12.2 0.00 0.00 0.00 90 1027.0
20260505181541 65 68 6.1 9.6 0.00 0.00 0.00 90 1027.0
20260505180044 65 62 4.3 11.3 0.00 0.00 0.00 89 1026.9
20260505174537 65 127 4.3 8.7 0.00 0.00 0.00 90 1027.1
20260505173043 64 91 2.6 9.6 0.00 0.00 0.00 89 1026.9
20260505171543 64 326 2.6 7.0 0.00 0.00 0.00 89 1027.0
20260505170043 64 69 4.3 10.4 0.00 0.00 0.00 89 1027.0
20260505164542 64 72 5.2 10.4 0.00 0.00 0.00 90 1027.1
20260505163037 65 349 5.2 10.4 0.00 0.00 0.00 90 1027.0
20260505161540 65 55 5.2 9.6 0.00 0.00 0.00 90 1027.1
20260505153047 65 304 4.3 9.6 0.00 0.00 0.00 87 1027.3
20260505151544 65 37 3.5 8.7 0.00 0.00 0.00 86 1027.4
20260505124548 66 340 4.3 13.0 0.00 0.00 0.00 87 1028.4
20260505123040 66 352 6.1 11.3 0.00 0.00 0.00 88 1028.4
20260505121541 66 86 3.5 11.3 0.00 0.00 0.00 87 1028.3
20260505120049 66 77 5.2 11.3 0.00 0.00 0.00 87 1028.4
20260505114545 66 102 7.0 11.3 0.00 0.00 0.00 87 1028.4
20260505113041 66 86 7.0 12.2 0.00 0.00 0.00 87 1028.4
20260505111538 66 104 7.8 12.2 0.00 0.00 0.00 88 1028.5
20260505101544 66 92 7.8 13.9 0.00 0.00 0.00 87 1028.9
20260505100040 66 41 6.1 13.9 0.00 0.00 0.00 87 1028.9
20260505094537 66 53 8.7 15.6 0.00 0.00 0.00 88 1029.0
20260505093040 66 59 7.8 12.2 0.00 0.00 0.00 88 1028.7
20260505091538 65 69 6.1 13.9 0.00 0.00 0.00 88 1028.9
20260505090042 65 98 7.8 14.8 0.00 0.00 0.00 87 1028.7
20260505084545 66 348 7.8 13.0 0.00 0.00 0.00 86 1028.8
20260505083040 65 51 6.1 10.4 0.00 0.00 0.00 86 1028.8
20260505081537 65 34 7.0 12.2 0.00 0.00 0.00 83 1028.8
20260505080046 65 7 7.0 11.3 0.00 0.00 0.00 83 1028.8
20260505074542 65 10 4.3 16.5 0.00 0.00 0.00 83 1028.8
20260505073044 65 75 7.8 13.9 0.00 0.00 0.00 85 1028.6
20260505071540 65 13 5.2 15.6 0.00 0.00 0.00 87 1028.5
20260505070050 66 61 8.7 17.4 0.00 0.00 0.00 87 1028.4
20260505064536 66 53 7.0 14.8 0.00 0.00 0.00 87 1028.3
20260505063035 66 48 5.2 13.0 0.00 0.00 0.00 87 1028.3
20260505061543 66 60 8.7 14.8 0.00 0.00 0.00 87 1028.3
20260505060042 65 51 7.0 13.0 0.00 0.00 0.00 91 1028.2
20260505054541 65 135 2.6 5.2 0.00 0.00 0.00 91 1028.2
20260505053036 65 134 2.6 7.0 0.00 0.00 0.00 90 1028.2
20260505051536 65 149 2.6 7.0 0.00 0.00 0.00 89 1028.2
20260505041550 66 143 3.5 7.0 0.00 0.00 0.00 84 1028.3
20260505040048 67 49 2.6 8.7 0.00 0.00 0.00 82 1028.3